MEA265 OLBA-LTFM

Flight info

Callsign MEA265
Flight time 1h 36m
Altitude 36000
Route KAD UR219 KUKLA M31 DESPO DCT VOLBE DCT VESAR UL620 OKLAM UB545 KFK UM855 SISPI
Aircraft A20N/M-SDE2E3FGHIRWXY/LB1

Departure

Time 2026-05-07 08:04
Airport Beirut Rafic Hariri International Airport (OLBA)

Arrival

Time 2026-05-07 09:40
Airport İstanbul Airport (LTFM)
Time Latitude Longitude Altitude Speed Heading
2026-05-07 07:54 33.82309 35.49309 21 ft 0 kts 118°
2026-05-07 07:57 33.82310 35.49308 21 ft 2 kts 118°
2026-05-07 07:57 33.82319 35.49285 22 ft 4 kts 118°
2026-05-07 07:57 33.82335 35.49265 21 ft 4 kts 163°
2026-05-07 07:57 33.82360 35.49263 21 ft 3 kts 193°
2026-05-07 07:58 33.82369 35.49265 21 ft 0 kts 194°
2026-05-07 08:00 33.82364 35.49263 12 ft 2 kts 194°
2026-05-07 08:00 33.82341 35.49256 20 ft 5 kts 194°
2026-05-07 08:00 33.82302 35.49244 20 ft 7 kts 194°
2026-05-07 08:00 33.82246 35.49228 20 ft 8 kts 185°
2026-05-07 08:01 33.82199 35.49260 20 ft 8 kts 115°
2026-05-07 08:01 33.82182 35.49332 21 ft 10 kts 105°
2026-05-07 08:01 33.82154 35.49415 21 ft 12 kts 115°
2026-05-07 08:01 33.82116 35.49512 22 ft 14 kts 115°
2026-05-07 08:02 33.82059 35.49600 21 ft 13 kts 165°
2026-05-07 08:02 33.81968 35.49597 20 ft 14 kts 186°
2026-05-07 08:02 33.81865 35.49589 21 ft 16 kts 182°
2026-05-07 08:02 33.81791 35.49605 21 ft 6 kts 187°
2026-05-07 08:03 33.81625 35.49505 22 ft 38 kts 217°
2026-05-07 08:03 33.81455 35.49354 20 ft 35 kts 214°
2026-05-07 08:03 33.80988 35.48991 17 ft 127 kts 212°
2026-05-07 08:03 33.80012 35.48233 200 ft 193 kts 215°
2026-05-07 08:04 33.78777 35.47242 620 ft 228 kts 216°
2026-05-07 08:04 33.77472 35.46064 1504 ft 241 kts 227°
2026-05-07 08:04 33.76329 35.44562 2603 ft 244 kts 230°
2026-05-07 08:04 33.75247 35.43026 3974 ft 235 kts 234°
2026-05-07 08:05 33.74472 35.41277 5080 ft 250 kts 251°
2026-05-07 08:05 33.74338 35.39127 6069 ft 268 kts 280°
2026-05-07 08:05 33.75073 35.37015 6809 ft 280 kts 300°
2026-05-07 08:05 33.76142 35.35068 7299 ft 284 kts 303°
2026-05-07 08:06 33.77280 35.33127 8142 ft 282 kts 304°
2026-05-07 08:06 33.78388 35.31218 9236 ft 275 kts 303°
2026-05-07 08:06 33.79478 35.29311 10190 ft 275 kts 303°
2026-05-07 08:06 33.80606 35.27441 10778 ft 287 kts 308°
2026-05-07 08:07 33.81917 35.25504 11098 ft 307 kts 309°
2026-05-07 08:07 33.83343 35.23476 11431 ft 326 kts 310°
2026-05-07 08:07 33.84852 35.21384 11746 ft 344 kts 310°
2026-05-07 08:07 33.86474 35.19164 12087 ft 359 kts 310°
2026-05-07 08:08 33.88148 35.16882 12631 ft 366 kts 310°
2026-05-07 08:08 33.89837 35.14579 13268 ft 369 kts 310°
2026-05-07 08:08 33.91551 35.12236 13937 ft 371 kts 310°
2026-05-07 08:08 33.93264 35.09888 14493 ft 374 kts 310°
2026-05-07 08:09 33.94970 35.07543 15054 ft 377 kts 310°
2026-05-07 08:09 33.96709 35.05147 15600 ft 379 kts 309°
2026-05-07 08:09 33.98451 35.02745 16148 ft 382 kts 309°
2026-05-07 08:09 34.00199 35.00332 16692 ft 384 kts 309°
2026-05-07 08:10 34.01950 34.97914 17243 ft 386 kts 309°
2026-05-07 08:10 34.03713 34.95478 17815 ft 387 kts 309°
2026-05-07 08:10 34.05501 34.93006 18346 ft 389 kts 309°
2026-05-07 08:10 34.07287 34.90534 18802 ft 392 kts 309°
2026-05-07 08:11 34.08479 34.88884 19085 ft 394 kts 309°
2026-05-07 08:11 34.10880 34.85557 19651 ft 397 kts 309°
2026-05-07 08:11 34.12109 34.83853 19959 ft 398 kts 309°
2026-05-07 08:11 34.13912 34.81352 20399 ft 400 kts 309°
2026-05-07 08:12 34.15749 34.78802 20841 ft 403 kts 309°
2026-05-07 08:12 34.17595 34.76238 21276 ft 405 kts 309°
2026-05-07 08:12 34.19452 34.73655 21752 ft 406 kts 309°
2026-05-07 08:12 34.21283 34.71110 22311 ft 406 kts 309°
2026-05-07 08:13 34.23144 34.68519 22724 ft 408 kts 309°
2026-05-07 08:13 34.25018 34.65908 23097 ft 411 kts 309°
2026-05-07 08:13 34.26879 34.63313 23476 ft 413 kts 309°
2026-05-07 08:13 34.28769 34.60676 23835 ft 415 kts 309°
2026-05-07 08:14 34.30670 34.58021 24143 ft 418 kts 309°
2026-05-07 08:14 34.32580 34.55351 24453 ft 420 kts 309°
2026-05-07 08:14 34.34480 34.52695 24769 ft 422 kts 309°
2026-05-07 08:14 34.36413 34.49990 25087 ft 424 kts 309°
2026-05-07 08:15 34.38342 34.47288 25414 ft 426 kts 309°
2026-05-07 08:15 34.40284 34.44566 25740 ft 427 kts 309°
2026-05-07 08:15 34.42238 34.41825 26063 ft 429 kts 309°
2026-05-07 08:15 34.44217 34.39107 26414 ft 431 kts 313°
2026-05-07 08:16 34.46655 34.36962 26817 ft 436 kts 330°
2026-05-07 08:16 34.49488 34.35762 27202 ft 442 kts 343°
2026-05-07 08:16 34.52548 34.35143 27599 ft 444 kts 348°
2026-05-07 08:16 34.55630 34.34740 28069 ft 442 kts 349°
2026-05-07 08:17 34.58641 34.34344 28475 ft 440 kts 348°
2026-05-07 08:17 34.61699 34.33854 28836 ft 439 kts 347°
2026-05-07 08:17 34.64709 34.33269 29211 ft 438 kts 345°
2026-05-07 08:17 34.67700 34.32609 29596 ft 436 kts 345°
2026-05-07 08:18 34.70665 34.31904 29973 ft 436 kts 344°
2026-05-07 08:18 34.73623 34.31174 30312 ft 435 kts 343°
2026-05-07 08:18 34.76607 34.30427 30649 ft 434 kts 343°
2026-05-07 08:18 34.79550 34.29691 31057 ft 431 kts 343°
2026-05-07 08:19 34.82465 34.28963 31345 ft 430 kts 343°
2026-05-07 08:19 34.85407 34.28229 31595 ft 431 kts 343°
2026-05-07 08:19 34.88331 34.27501 31850 ft 431 kts 343°
2026-05-07 08:19 34.91269 34.26772 32101 ft 431 kts 343°
2026-05-07 08:20 34.94209 34.26042 32355 ft 430 kts 343°
2026-05-07 08:20 34.97139 34.25316 32599 ft 430 kts 343°
2026-05-07 08:20 35.00073 34.24588 32903 ft 429 kts 343°
2026-05-07 08:20 35.02968 34.23871 33258 ft 426 kts 343°
2026-05-07 08:21 35.05870 34.23151 33495 ft 426 kts 343°
2026-05-07 08:21 35.08801 34.22422 33697 ft 426 kts 343°
2026-05-07 08:21 35.11698 34.21700 33894 ft 426 kts 343°
2026-05-07 08:21 35.14602 34.20976 34124 ft 425 kts 343°
2026-05-07 08:22 35.17499 34.20254 34308 ft 425 kts 343°
2026-05-07 08:22 35.20369 34.19538 34475 ft 425 kts 343°
2026-05-07 08:22 35.23249 34.18820 34668 ft 424 kts 343°
2026-05-07 08:22 35.26137 34.18099 34889 ft 422 kts 343°
2026-05-07 08:23 35.29035 34.17375 35028 ft 423 kts 343°
2026-05-07 08:23 35.31918 34.16653 35154 ft 423 kts 343°
2026-05-07 08:23 35.34807 34.15930 35281 ft 423 kts 343°
2026-05-07 08:23 35.37656 34.15215 35419 ft 423 kts 343°
2026-05-07 08:24 35.40556 34.14488 35548 ft 423 kts 343°
2026-05-07 08:24 35.43465 34.13758 35679 ft 423 kts 343°
2026-05-07 08:24 35.46354 34.13033 35809 ft 423 kts 343°
2026-05-07 08:24 35.49222 34.12313 35933 ft 424 kts 343°
2026-05-07 08:25 35.52113 34.11586 36055 ft 424 kts 343°
2026-05-07 08:25 35.57873 34.10135 36143 ft 425 kts 343°
2026-05-07 08:26 35.66575 34.07942 36150 ft 424 kts 343°
2026-05-07 08:26 35.72351 34.06484 36144 ft 423 kts 343°
2026-05-07 08:27 35.78095 34.05031 36141 ft 423 kts 343°
2026-05-07 08:27 35.83880 34.03564 36143 ft 423 kts 343°
2026-05-07 08:28 35.89637 34.02103 36145 ft 422 kts 342°
2026-05-07 08:28 35.94979 33.99507 36144 ft 410 kts 326°
2026-05-07 08:29 35.99788 33.95792 36143 ft 409 kts 322°
2026-05-07 08:29 36.04558 33.91924 36143 ft 409 kts 323°
2026-05-07 08:30 36.09341 33.88186 36146 ft 409 kts 324°
2026-05-07 08:30 36.14196 33.84489 36146 ft 409 kts 324°
2026-05-07 08:31 36.19037 33.80824 36149 ft 409 kts 325°
2026-05-07 08:31 36.23896 33.77139 36147 ft 408 kts 325°
2026-05-07 08:32 36.28746 33.73447 36149 ft 408 kts 324°
2026-05-07 08:32 36.33562 33.69774 36147 ft 408 kts 324°
2026-05-07 08:33 36.38405 33.66074 36145 ft 408 kts 324°
2026-05-07 08:33 36.43251 33.62384 36145 ft 407 kts 324°
2026-05-07 08:34 36.48066 33.58691 36146 ft 407 kts 325°
2026-05-07 08:34 36.52862 33.55003 36148 ft 407 kts 325°
2026-05-07 08:35 36.57675 33.51304 36148 ft 407 kts 325°
2026-05-07 08:35 36.62500 33.47591 36155 ft 407 kts 325°
2026-05-07 08:36 36.67334 33.43866 36152 ft 407 kts 325°
2026-05-07 08:36 36.72132 33.40163 36177 ft 407 kts 325°
2026-05-07 08:37 36.76961 33.36430 36159 ft 407 kts 325°
2026-05-07 08:37 36.81762 33.32714 36159 ft 407 kts 325°
2026-05-07 08:38 36.86515 33.28835 36166 ft 405 kts 318°
2026-05-07 08:38 36.90515 33.23964 36171 ft 403 kts 311°
2026-05-07 08:39 36.94233 33.18683 36167 ft 403 kts 310°
2026-05-07 08:39 36.97951 33.13417 36174 ft 403 kts 311°
2026-05-07 08:40 37.01694 33.08247 36178 ft 403 kts 311°
2026-05-07 08:40 37.05485 33.03068 36178 ft 402 kts 311°
2026-05-07 08:41 37.09265 32.97908 36179 ft 402 kts 311°
2026-05-07 08:41 37.13034 32.92751 36185 ft 402 kts 311°
2026-05-07 08:42 37.16812 32.87567 36181 ft 402 kts 312°
2026-05-07 08:42 37.20580 32.82388 36183 ft 402 kts 312°
2026-05-07 08:43 37.24341 32.77212 36185 ft 402 kts 312°
2026-05-07 08:43 37.28103 32.72025 36186 ft 401 kts 312°
2026-05-07 08:44 37.31865 32.66830 36187 ft 401 kts 311°
2026-05-07 08:44 37.35610 32.61648 36178 ft 401 kts 312°
2026-05-07 08:45 37.39368 32.56440 36191 ft 401 kts 312°
2026-05-07 08:45 37.43098 32.51265 36189 ft 402 kts 312°
2026-05-07 08:46 37.46859 32.46037 36189 ft 402 kts 312°
2026-05-07 08:46 37.50610 32.40814 36189 ft 402 kts 312°
2026-05-07 08:47 37.54336 32.35619 36189 ft 402 kts 312°
2026-05-07 08:47 37.58089 32.30377 36189 ft 401 kts 312°
2026-05-07 08:48 37.61817 32.25163 36189 ft 401 kts 312°
2026-05-07 08:48 37.65563 32.19914 36190 ft 401 kts 312°
2026-05-07 08:49 37.69289 32.14683 36195 ft 401 kts 312°
2026-05-07 08:49 37.73023 32.09435 36193 ft 401 kts 312°
2026-05-07 08:50 37.76741 32.04198 36201 ft 401 kts 312°
2026-05-07 08:50 37.80466 31.98944 36207 ft 401 kts 312°
2026-05-07 08:51 37.84180 31.93698 36207 ft 401 kts 312°
2026-05-07 08:51 37.87887 31.88452 36208 ft 401 kts 312°
2026-05-07 08:52 37.91606 31.83181 36208 ft 401 kts 312°
2026-05-07 08:52 37.95331 31.77893 36209 ft 400 kts 312°
2026-05-07 08:53 37.99021 31.72645 36207 ft 400 kts 312°
2026-05-07 08:53 38.02732 31.67360 36202 ft 399 kts 313°
2026-05-07 08:54 38.06415 31.62106 36204 ft 399 kts 312°
2026-05-07 08:54 38.10046 31.56778 36212 ft 400 kts 310°
2026-05-07 08:55 38.13570 31.51276 36204 ft 400 kts 312°
2026-05-07 08:55 38.17230 31.46001 36211 ft 399 kts 313°
2026-05-07 08:56 38.20956 31.40759 36207 ft 399 kts 313°
2026-05-07 08:56 38.24651 31.35543 36211 ft 399 kts 313°
2026-05-07 08:57 38.28367 31.30263 36212 ft 399 kts 313°
2026-05-07 08:57 38.31433 31.25891 36208 ft 399 kts 313°
2026-05-07 08:58 38.35132 31.20607 36205 ft 399 kts 313°
2026-05-07 08:58 38.38813 31.15338 36206 ft 399 kts 313°
2026-05-07 08:59 38.42509 31.10040 36203 ft 399 kts 313°
2026-05-07 08:59 38.46182 31.04768 36198 ft 398 kts 313°
2026-05-07 09:00 38.49778 30.99361 36208 ft 399 kts 309°
2026-05-07 09:00 38.53114 30.93742 36199 ft 400 kts 308°
2026-05-07 09:01 38.56435 30.88016 36200 ft 400 kts 308°
2026-05-07 09:01 38.59746 30.82348 36200 ft 400 kts 308°
2026-05-07 09:02 38.63099 30.76644 36198 ft 400 kts 308°
2026-05-07 09:02 38.66453 30.70944 36197 ft 400 kts 308°
2026-05-07 09:03 38.69794 30.65256 36197 ft 400 kts 308°
2026-05-07 09:03 38.73441 30.60159 36203 ft 397 kts 324°
2026-05-07 09:04 38.78278 30.56687 36207 ft 400 kts 333°
2026-05-07 09:04 38.83345 30.53695 36195 ft 401 kts 333°
2026-05-07 09:05 38.88350 30.50625 36195 ft 400 kts 332°
2026-05-07 09:05 38.93334 30.47405 36190 ft 400 kts 332°
2026-05-07 09:06 38.98294 30.44134 36189 ft 400 kts 331°
2026-05-07 09:06 39.03219 30.40876 36205 ft 400 kts 331°
2026-05-07 09:07 39.08191 30.37589 36181 ft 401 kts 331°
2026-05-07 09:07 39.13167 30.34297 36181 ft 402 kts 331°
2026-05-07 09:08 39.18128 30.31012 36182 ft 402 kts 331°
2026-05-07 09:08 39.23104 30.27712 36181 ft 402 kts 331°
2026-05-07 09:09 39.28050 30.24425 36190 ft 402 kts 331°
2026-05-07 09:09 39.33025 30.21114 36178 ft 402 kts 331°
2026-05-07 09:10 39.37982 30.17810 36175 ft 401 kts 331°
2026-05-07 09:10 39.42953 30.14491 36173 ft 401 kts 331°
2026-05-07 09:11 39.47943 30.11289 36154 ft 402 kts 334°
2026-05-07 09:11 39.53094 30.08399 36178 ft 403 kts 335°
2026-05-07 09:12 39.58277 30.05580 36168 ft 403 kts 335°
2026-05-07 09:12 39.63427 30.02745 36169 ft 403 kts 335°
2026-05-07 09:13 39.68598 29.99863 36166 ft 403 kts 335°
2026-05-07 09:13 39.73725 29.96992 36168 ft 403 kts 335°
2026-05-07 09:14 39.78900 29.94086 36154 ft 403 kts 335°
2026-05-07 09:14 39.81429 29.92664 35789 ft 399 kts 335°
2026-05-07 09:14 39.83978 29.91231 35327 ft 393 kts 335°
2026-05-07 09:15 39.86443 29.89843 34888 ft 388 kts 335°
2026-05-07 09:15 39.88903 29.88458 34442 ft 383 kts 335°
2026-05-07 09:15 39.91334 29.87051 33961 ft 379 kts 335°
2026-05-07 09:15 39.93851 29.86078 33405 ft 379 kts 353°
2026-05-07 09:16 39.96493 29.86160 32887 ft 379 kts
2026-05-07 09:16 39.99107 29.86460 32457 ft 373 kts
2026-05-07 09:16 40.01683 29.86680 32006 ft 368 kts 359°
2026-05-07 09:16 40.04201 29.86811 31527 ft 364 kts 358°
2026-05-07 09:17 40.06719 29.86885 31066 ft 360 kts 357°
2026-05-07 09:17 40.09210 29.86924 30651 ft 355 kts 356°
2026-05-07 09:17 40.11660 29.86944 30215 ft 351 kts 356°
2026-05-07 09:17 40.14099 29.86953 29707 ft 347 kts 356°
2026-05-07 09:18 40.16513 29.86955 29213 ft 344 kts 356°
2026-05-07 09:18 40.21610 29.86952 28173 ft 337 kts 356°
2026-05-07 09:18 40.23949 29.86948 27699 ft 334 kts 356°
2026-05-07 09:19 40.26276 29.86943 27230 ft 331 kts 355°
2026-05-07 09:19 40.28550 29.86637 26757 ft 326 kts 348°
2026-05-07 09:19 40.30727 29.85994 26313 ft 323 kts 341°
2026-05-07 09:19 40.32790 29.84882 25863 ft 319 kts 330°
2026-05-07 09:20 40.34612 29.83244 25422 ft 318 kts 319°
2026-05-07 09:20 40.36148 29.81152 24956 ft 317 kts 312°
2026-05-07 09:20 40.37495 29.78868 24491 ft 316 kts 308°
2026-05-07 09:20 40.38736 29.76486 24080 ft 315 kts 306°
2026-05-07 09:21 40.39924 29.74077 23667 ft 314 kts 306°
2026-05-07 09:21 40.41095 29.71676 23191 ft 312 kts 306°
2026-05-07 09:21 40.42274 29.69279 22723 ft 310 kts 306°
2026-05-07 09:21 40.43452 29.66916 22247 ft 308 kts 306°
2026-05-07 09:22 40.44630 29.64582 21794 ft 306 kts 307°
2026-05-07 09:22 40.45807 29.62271 21353 ft 304 kts 307°
2026-05-07 09:22 40.46983 29.59972 20918 ft 302 kts 307°
2026-05-07 09:22 40.48144 29.57705 20480 ft 299 kts 307°
2026-05-07 09:23 40.49288 29.55472 20064 ft 297 kts 307°
2026-05-07 09:23 40.50437 29.53226 19622 ft 295 kts 307°
2026-05-07 09:23 40.51578 29.50992 19213 ft 293 kts 307°
2026-05-07 09:23 40.52709 29.48775 18794 ft 291 kts 307°
2026-05-07 09:24 40.53835 29.46567 18384 ft 289 kts 307°
2026-05-07 09:24 40.54952 29.44374 17933 ft 288 kts 307°
2026-05-07 09:24 40.56063 29.42192 17488 ft 286 kts 306°
2026-05-07 09:24 40.57169 29.40017 17054 ft 285 kts 306°
2026-05-07 09:25 40.57898 29.38582 16768 ft 284 kts 306°
2026-05-07 09:25 40.58994 29.36424 16357 ft 283 kts 306°
2026-05-07 09:25 40.60083 29.34280 15926 ft 282 kts 306°
2026-05-07 09:25 40.61169 29.32139 15516 ft 280 kts 306°
2026-05-07 09:26 40.62251 29.30005 15107 ft 280 kts 306°
2026-05-07 09:26 40.63329 29.27879 14704 ft 279 kts 306°
2026-05-07 09:26 40.64401 29.25762 14313 ft 278 kts 305°
2026-05-07 09:26 40.65475 29.23639 13918 ft 277 kts 306°
2026-05-07 09:27 40.66543 29.21525 13467 ft 275 kts 305°
2026-05-07 09:27 40.67588 29.19455 13064 ft 274 kts 305°
2026-05-07 09:27 40.69676 29.15317 11989 ft 269 kts 305°
2026-05-07 09:28 40.70712 29.13262 11341 ft 268 kts 305°
2026-05-07 09:28 40.71730 29.11241 10750 ft 267 kts 305°
2026-05-07 09:28 40.72755 29.09207 10158 ft 264 kts 305°
2026-05-07 09:28 40.73772 29.07185 9527 ft 262 kts 304°
2026-05-07 09:29 40.74763 29.05216 8921 ft 259 kts 304°
2026-05-07 09:29 40.75756 29.03240 8323 ft 257 kts 304°
2026-05-07 09:29 40.76751 29.01260 7791 ft 259 kts 303°
2026-05-07 09:29 40.77751 28.99269 7298 ft 260 kts 303°
2026-05-07 09:30 40.78741 28.97296 6836 ft 260 kts 303°
2026-05-07 09:30 40.79739 28.95307 6312 ft 255 kts 303°
2026-05-07 09:30 40.80700 28.93388 5771 ft 252 kts 303°
2026-05-07 09:30 40.81668 28.91454 5285 ft 253 kts 303°
2026-05-07 09:31 40.82641 28.89508 4809 ft 254 kts 302°
2026-05-07 09:31 40.83613 28.87565 4650 ft 251 kts 302°
2026-05-07 09:31 40.84563 28.85663 4956 ft 239 kts 302°
2026-05-07 09:31 40.85429 28.83945 5019 ft 215 kts 305°
2026-05-07 09:32 40.86426 28.82533 5032 ft 212 kts 318°
2026-05-07 09:32 40.87610 28.81382 4995 ft 209 kts 324°
2026-05-07 09:32 40.88821 28.80351 4992 ft 208 kts 326°
2026-05-07 09:32 40.90057 28.79343 4993 ft 208 kts 326°
2026-05-07 09:33 40.91303 28.78343 4993 ft 209 kts 327°
2026-05-07 09:33 40.92549 28.77350 4992 ft 208 kts 327°
2026-05-07 09:33 40.93787 28.76366 4992 ft 207 kts 327°
2026-05-07 09:33 40.95013 28.75393 4993 ft 207 kts 327°
2026-05-07 09:34 40.96250 28.74412 4993 ft 207 kts 327°
2026-05-07 09:34 40.97547 28.73557 5002 ft 210 kts 340°
2026-05-07 09:34 40.99019 28.73334 4981 ft 210 kts 356°
2026-05-07 09:34 41.00409 28.73335 4883 ft 191 kts 356°
2026-05-07 09:35 41.01695 28.73325 4626 ft 183 kts 355°
2026-05-07 09:35 41.02977 28.73309 4361 ft 180 kts 355°
2026-05-07 09:35 41.04201 28.73299 4078 ft 176 kts 356°
2026-05-07 09:35 41.05426 28.73289 3986 ft 177 kts 355°
2026-05-07 09:36 41.06682 28.73257 3632 ft 182 kts 355°
2026-05-07 09:36 41.07932 28.73216 3505 ft 178 kts 355°
2026-05-07 09:36 41.09171 28.73177 3492 ft 178 kts 354°
2026-05-07 09:36 41.10413 28.73139 3367 ft 180 kts 354°
2026-05-07 09:37 41.11672 28.73101 3033 ft 178 kts 355°
2026-05-07 09:37 41.12914 28.73072 3005 ft 178 kts 355°
2026-05-07 09:37 41.14134 28.73043 2953 ft 178 kts 355°
2026-05-07 09:37 41.15387 28.73014 2572 ft 180 kts 355°
2026-05-07 09:38 41.16631 28.72988 2123 ft 178 kts 356°
2026-05-07 09:38 41.17869 28.72958 2016 ft 178 kts 356°
2026-05-07 09:38 41.19107 28.72952 1864 ft 178 kts 357°
2026-05-07 09:38 41.20341 28.72918 1581 ft 177 kts 356°
2026-05-07 09:39 41.21580 28.72878 1337 ft 179 kts 357°
2026-05-07 09:39 41.22792 28.72853 1038 ft 171 kts 358°
2026-05-07 09:39 41.23940 28.72817 770 ft 159 kts
2026-05-07 09:39 41.25041 28.72791 582 ft 158 kts
2026-05-07 09:40 41.26140 28.72773 390 ft 156 kts
2026-05-07 09:40 41.27149 28.72761 335 ft 125 kts 360°
2026-05-07 09:40 41.27782 28.72744 332 ft 51 kts 359°
2026-05-07 09:40 41.28056 28.72825 336 ft 31 kts 32°
2026-05-07 09:41 41.28114 28.72872 336 ft 7 kts 41°
2026-05-07 09:41 41.28126 28.72938 336 ft 8 kts 105°
2026-05-07 09:41 41.28113 28.72958 334 ft 1 kts 165°
2026-05-07 09:41 41.28020 28.72963 336 ft 19 kts 179°
2026-05-07 09:42 41.27889 28.72966 336 ft 19 kts 179°
2026-05-07 09:42 41.27757 28.72969 333 ft 19 kts 179°
2026-05-07 09:42 41.27629 28.72972 333 ft 17 kts 180°
2026-05-07 09:42 41.27508 28.72974 333 ft 17 kts 179°
2026-05-07 09:43 41.27395 28.72976 336 ft 16 kts 179°
2026-05-07 09:43 41.27286 28.72978 335 ft 16 kts 179°
2026-05-07 09:43 41.27173 28.72981 332 ft 16 kts 179°
2026-05-07 09:43 41.27061 28.72985 333 ft 16 kts 179°
2026-05-07 09:44 41.26947 28.72986 336 ft 16 kts 179°
2026-05-07 09:44 41.26882 28.73000 334 ft 3 kts 144°
2026-05-07 09:44 41.26868 28.73026 337 ft 7 kts 110°
2026-05-07 09:44 41.26866 28.73094 334 ft 7 kts 88°
2026-05-07 09:45 41.26867 28.73165 334 ft 8 kts 89°
2026-05-07 09:45 41.26868 28.73285 334 ft 20 kts 89°
2026-05-07 09:45 41.26871 28.73523 333 ft 28 kts 89°
2026-05-07 09:45 41.26875 28.73784 334 ft 28 kts 89°
2026-05-07 09:46 41.26841 28.73874 333 ft 6 kts 178°
2026-05-07 09:46 41.26713 28.73875 335 ft 27 kts 179°
2026-05-07 09:46 41.26531 28.73885 336 ft 23 kts 168°
2026-05-07 09:46 41.26392 28.73896 333 ft 15 kts 198°
2026-05-07 09:47 41.26360 28.73882 333 ft 1 kts 198°
2026-05-07 09:47 41.26357 28.73880 333 ft 0 kts 198°